Regional Weather Roundup
Issued by NWS

Home | Current Version | Previous Version | Graphics & Text | Print | Product List | Glossary On
Versions: 1 2 3 4 5 6 7 8 9 10 11 12 13 14 15 16 17 18 19 20 21 22 23 24 25 26 27 28 29 30 31 32 33 34 35 36 37 38 39 40 41 42 43 44 45 46 47 48 49 50
000
ASUS43 KFSD 120602
RWRSD

WEATHER ROUNDUP FOR SOUTH DAKOTA
NATIONAL WEATHER SERVICE SIOUX FALLS SD
1200 AM CST TUE DEC 12 2017

NOTE: "FAIR" INDICATES FEW OR NO CLOUDS BELOW 12,000 FEET WITH NO
SIGNIFICANT WEATHER AND/OR OBSTRUCTIONS TO VISIBILITY.


SDZ001>005-009-010-012>017-120700-
NORTHWEST AND NORTH CENTRAL SOUTH DAKOTA

CITY           SKY/WX    TMP DP  RH WIND       PRES   REMARKS
BUFFALO          N/A     25  21  85 NW7       30.26F WCI  17
MOBRIDGE       CLOUDY    21  19  92 CALM      30.31S
$$

SDZ012>016-024>037-041>051-057-063-072>074-120700-
SOUTHWEST AND SOUTH CENTRAL SOUTH DAKOTA

CITY           SKY/WX    TMP DP  RH WIND       PRES   REMARKS
RAPID CTY ARPT CLOUDY    24  16  71 SW3       30.37F
PIERRE         MOCLDY    30  28  92 NW5       30.35F WCI  25
CUSTER         CLOUDY    26   0  32 W9        30.32S WCI  17
ELLSWORTH AFB  CLOUDY    21  16  82 CALM      30.36S
PHILIP         CLEAR     28  23  81 W8        30.37F WCI  20
PINE RIDGE     CLOUDY    18  16  92 W3        30.39F
SPEARFISH      FAIR      32   9  37 W10       30.35S WCI  24
WINNER         CLOUDY    32  28  85 VRB3      30.37S
$$

SDZ004>011-016>023-039-040-120700-
NORTHEAST SOUTH DAKOTA

CITY           SKY/WX    TMP DP  RH WIND       PRES   REMARKS
ABERDEEN       CLOUDY     7   6  96 SW6       30.36S WCI  -3
WATERTOWN      CLEAR     13  11  92 NW7       30.29F WCI   3
BROOKINGS      CLEAR     14  11  87 NW5       30.32F WCI   6
SISSETON         N/A     11   8  88 NW5       30.32F WCI   3
$$

SDZ017-020-022-023-036>040-048>070-120700-
SOUTHEAST SOUTH DAKOTA

CITY           SKY/WX    TMP DP  RH WIND       PRES   REMARKS
SIOUX FALLS    CLEAR     15  12  88 W3        30.34S
HURON          CLEAR     14  12  92 W7        30.37F WCI   4
CHAMBERLAIN    CLEAR     21  21  99 CALM      30.37F
MITCHELL       CLEAR     17  14  88 NW8       30.40S WCI   7
YANKTON        CLEAR     17  14  88 NW7       30.38S WCI   8
$$

ABBREVIATIONS USED IN REMARKS
   TC - TEMPERATURE IN CELSIUS
  WCI - WIND CHILL INDEX
   HX - HEAT INDEX
  VSB - VISIBILITY





USA.gov is the U.S. government's official web portal to all federal, state and local government web resources and services.